GW0047 Weather Reports


time (UTC)temp
C
wind
direction
speed
KPH
gust
KPH
rain 1hr
cm
rain 24hr
cm
rain mn
cm
humidity
%
barometer
mb
20260506003535 24 179 9.7 17.7 0.00 0.15 0.15 44 1009.2
20260506003030 25 194 9.7 27.4 0.00 0.15 0.15 43 1009.1
20260506002530 25 169 8.0 27.4 0.00 0.15 0.15 44 1009.1
20260506002029 25 146 9.7 27.4 0.00 0.15 0.15 44 1009.0
20260506001953 25 223 9.7 27.4 0.00 0.15 0.15 44 1008.8
20260506001030 25 194 8.0 25.7 0.00 0.15 0.15 44 1008.9
20260506000530 25 112 8.0 25.7 0.00 0.15 0.15 44 1008.8
20260506000030 25 186 9.7 27.4 0.00 0.15 0.15 44 1008.8
20260505235529 25 168 9.7 27.4 0.00 0.15 0.15 44 1009.0
20260505235034 25 205 9.7 27.4 0.00 0.15 0.15 44 1008.7
20260505234725 25 188 9.7 27.4 0.00 0.15 0.15 43 1008.7
20260505233528 25 196 11.3 27.4 0.00 0.15 0.15 42 1008.6
20260505233022 25 184 12.9 29.0 0.00 0.15 0.15 41 1008.6
20260505232513 25 234 12.9 29.0 0.00 0.15 0.15 41 1008.5
20260505232005 25 175 11.3 29.0 0.00 0.15 0.15 41 1008.4
20260505231505 25 221 12.9 29.0 0.00 0.15 0.15 41 1008.5
20260505231008 25 259 12.9 30.6 0.00 0.15 0.15 42 1008.4
20260505230504 26 188 11.3 30.6 0.00 0.15 0.15 42 1008.5
20260505230004 26 169 12.9 30.6 0.00 0.15 0.15 41 1008.4
20260505225504 26 182 12.9 30.6 0.00 0.15 0.15 41 1008.5
20260505225003 26 155 11.3 29.0 0.00 0.15 0.15 40 1008.3
20260505224503 26 208 11.3 29.0 0.00 0.15 0.15 40 1008.4
20260505224432 26 205 11.3 27.4 0.00 0.15 0.15 40 1008.3
20260505223503 26 190 11.3 30.6 0.00 0.15 0.15 41 1008.4
20260505223007 26 123 11.3 30.6 0.00 0.15 0.15 40 1008.2
20260505222508 26 225 12.9 32.2 0.00 0.15 0.15 41 1008.3
20260505222007 26 176 14.5 32.2 0.00 0.15 0.15 40 1008.2
20260505221939 26 225 14.5 30.6 0.00 0.15 0.15 41 1007.9
20260505221006 26 145 14.5 30.6 0.00 0.15 0.15 41 1008.0
20260505220501 26 194 12.9 30.6 0.00 0.15 0.15 41 1008.1
20260505220008 26 173 11.3 25.7 0.00 0.15 0.15 41 1008.1
20260505215502 27 163 9.7 29.0 0.00 0.15 0.15 41 1008.1
20260505215001 27 169 11.3 29.0 0.00 0.15 0.15 41 1008.3
20260505214730 26 152 14.5 29.0 0.00 0.15 0.15 42 1008.3
20260505214004 26 178 14.5 33.8 0.00 0.15 0.15 41 1008.2
20260505213513 27 150 12.9 33.8 0.00 0.15 0.15 40 1008.3
20260505213434 27 154 12.9 30.6 0.00 0.15 0.15 41 1008.3
20260505212501 27 156 12.9 33.8 0.00 0.15 0.15 41 1008.3
20260505212433 27 121 12.9 33.8 0.00 0.15 0.15 41 1008.3
20260505211506 26 157 14.5 37.0 0.00 0.15 0.15 41 1008.2
20260505211005 26 266 14.5 37.0 0.00 0.15 0.15 40 1008.1
20260505210504 27 197 12.9 32.2 0.00 0.15 0.15 40 1008.0
20260505210002 27 200 12.9 29.0 0.00 0.15 0.15 41 1008.0
20260505205928 27 140 14.5 32.2 0.00 0.15 0.15 42 1008.1
20260505205430 27 185 14.5 32.2 0.00 0.15 0.15 40 1008.1
20260505204502 27 184 12.9 29.0 0.00 0.15 0.15 40 1008.1
20260505204001 27 178 11.3 27.4 0.00 0.15 0.15 39 1008.1
20260505203926 27 202 12.9 27.4 0.00 0.15 0.15 39 1007.9
20260505203005 27 135 14.5 35.4 0.00 0.15 0.15 38 1007.9
20260505202501 27 167 12.9 35.4 0.00 0.15 0.15 38 1008.1
20260505202408 27 148 12.9 29.0 0.00 0.15 0.15 39 1008.0
20260505201506 27 188 11.3 30.6 0.00 0.15 0.15 38 1008.1
20260505201005 27 242 11.3 30.6 0.00 0.15 0.15 39 1008.2
20260505200506 27 217 11.3 32.2 0.00 0.15 0.15 39 1008.1
20260505200006 27 195 11.3 32.2 0.00 0.15 0.15 40 1008.2
20260505195501 27 194 12.9 32.2 0.00 0.15 0.15 40 1008.3
20260505195153 27 213 16.1 32.2 0.00 0.15 0.15 40 1008.2
20260505194428 27 173 12.9 27.4 0.00 0.15 0.15 40 1008.3
20260505193508 27 223 12.9 32.2 0.00 0.15 0.15 41 1008.3
20260505193005 27 171 12.9 32.2 0.00 0.15 0.15 41 1008.2
20260505192507 27 153 14.5 35.4 0.00 0.15 0.15 42 1008.3
20260505192001 27 178 12.9 35.4 0.00 0.15 0.15 42 1008.5
20260505191507 27 206 11.3 24.1 0.00 0.15 0.15 42 1008.4
20260505191000 27 182 11.3 24.1 0.00 0.15 0.15 42 1008.5
20260505190501 27 222 12.9 24.1 0.00 0.15 0.15 40 1008.4
20260505190027 27 250 11.3 24.1 0.00 0.15 0.15 40 1008.5
20260505185842 27 205 9.7 24.1 0.00 0.15 0.15 39 1008.7
20260505185025 27 177 8.0 19.3 0.00 0.15 0.15 41 1008.6
20260505184523 27 240 9.7 19.3 0.00 0.15 0.15 41 1008.6
20260505184018 27 156 9.7 19.3 0.00 0.15 0.15 42 1008.7
20260505183529 27 182 9.7 24.1 0.00 0.15 0.15 42 1008.8
20260505183045 27 148 12.9 24.1 0.00 0.15 0.15 42 1008.9
20260505183026 27 250 11.3 24.1 0.00 0.15 0.15 41 1008.8
20260505182013 27 193 11.3 27.4 0.00 0.15 0.15 38 1008.9
20260505181518 28 226 9.7 27.4 0.00 0.15 0.15 38 1009.0
20260505181018 27 157 12.9 29.0 0.00 0.15 0.15 36 1009.2
20260505180750 27 205 14.5 29.0 0.00 0.15 0.15 38 1009.2
20260505180523 27 205 14.5 29.0 0.00 0.15 0.15 38 1009.2
20260505180017 27 190 11.3 27.4 0.00 0.15 0.15 37 1009.3
20260505175504 27 143 9.7 29.0 0.00 0.15 0.15 40 1009.5
20260505175023 27 219 14.5 32.2 0.00 0.15 0.15 39 1009.4
20260505175019 27 198 11.3 29.0 0.00 0.15 0.15 40 1009.5
20260505174006 27 217 12.9 32.2 0.00 0.15 0.15 41 1009.5
20260505173503 27 175 11.3 24.1 0.00 0.15 0.15 41 1009.5
20260505173018 27 185 12.9 25.7 0.00 0.15 0.15 41 1009.7
20260505172504 27 206 12.9 27.4 0.00 0.15 0.15 41 1009.6
20260505172002 26 148 11.3 27.4 0.00 0.15 0.15 43 1009.5
20260505171511 26 203 11.3 22.5 0.00 0.15 0.15 44 1009.6
20260505171507 26 223 11.3 22.5 0.00 0.15 0.15 44 1009.6
20260505170830 26 129 9.7 20.9 0.00 0.15 0.15 46 1009.6
20260505170002 26 213 8.0 24.1 0.00 0.15 0.15 45 1009.7
20260505165502 26 189 8.0 24.1 0.00 0.15 0.15 48 1009.8
20260505165007 26 259 9.7 27.4 0.00 0.15 0.15 47 1010.0
20260505164502 26 211 9.7 27.4 0.00 0.15 0.15 47 1010.1
20260505164004 26 254 8.0 22.5 0.00 0.15 0.15 46 1010.2
20260505163504 26 242 9.7 22.5 0.00 0.15 0.15 47 1010.3
20260505162957 26 141 9.7 22.5 0.00 0.15 0.15 49 1010.4
20260505162446 25 202 9.7 22.5 0.00 0.15 0.15 49 1010.3
20260505161945 25 227 11.3 25.7 0.00 0.15 0.15 47 1010.4
20260505161438 25 192 11.3 25.7 0.00 0.15 0.15 48 1010.4
20260505160935 25 269 9.7 24.1 0.00 0.15 0.15 52 1010.4
20260505160431 25 289 9.7 24.1 0.00 0.15 0.15 49 1010.4
20260505152935 25 180 6.4 19.3 0.00 0.15 0.15 51 1010.7
20260505152437 25 198 6.4 16.1 0.00 0.15 0.15 51 1010.7
20260505151930 24 182 6.4 16.1 0.00 0.15 0.15 52 1010.8
20260505151815 24 284 6.4 17.7 0.00 0.15 0.15 53 1010.7
20260505151320 24 218 6.4 17.7 0.00 0.15 0.15 53 1010.8
20260505150435 23 201 6.4 11.3 0.00 0.15 0.15 53 1010.8
20260505124914 18 187 4.8 11.3 0.00 0.15 0.15 70 1011.6
20260505124413 18 179 3.2 11.3 0.00 0.15 0.15 70 1011.6
20260505124334 18 199 1.6 4.8 0.00 0.15 0.15 73 1011.6
20260505123416 17 239 1.6 4.8 0.00 0.15 0.15 73 1011.5
20260505122912 17 145 1.6 4.8 0.00 0.15 0.15 75 1011.4
20260505122417 17 176 1.6 4.8 0.00 0.15 0.15 75 1011.5
20260505121910 16 222 1.6 4.8 0.00 0.15 0.15 76 1011.5
20260505121410 16 221 1.6 4.8 0.00 0.15 0.15 78 1011.4
20260505120914 16 221 1.6 4.8 0.00 0.15 0.15 79 1011.5
20260505120411 15 257 1.6 4.8 0.00 0.15 0.15 81 1011.6
20260505115914 15 269 0.0 3.2 0.00 0.15 0.15 82 1011.6
20260505115410 15 202 1.6 4.8 0.00 0.15 0.15 82 1011.4
20260505114912 15 0 0.0 4.8 0.00 0.15 0.15 84 1011.3
20260505114412 14 159 1.6 4.8 0.00 0.15 0.15 85 1011.3
20260505113914 14 145 1.6 4.8 0.00 0.15 0.15 86 1011.3
20260505113601 13 165 1.6 4.8 0.00 0.15 0.15 87 1011.1
20260505112410 13 159 1.6 6.4 0.00 0.15 0.15 89 1011.2
20260505112328 13 159 1.6 6.4 0.00 0.15 0.15 89 1011.1
20260505111410 13 169 0.0 6.4 0.00 0.15 0.15 90 1011.1
20260505110912 12 0 1.6 6.4 0.00 0.15 0.15 91 1011.2
20260505110414 12 244 1.6 6.4 0.00 0.15 0.15 92 1011.3
20260505101406 12 116 0.0 1.6 0.00 0.15 0.15 91 1010.8
20260505101317 12 116 0.0 3.2 0.00 0.15 0.15 91 1010.8
20260505100402 12 116 1.6 3.2 0.00 0.15 0.15 90 1010.8
20260505100327 12 116 0.0 3.2 0.00 0.15 0.15 90 1010.9
20260505095405 12 116 0.0 3.2 0.00 0.15 0.15 90 1010.8
20260505094903 12 116 0.0 3.2 0.00 0.15 0.15 89 1010.8
20260505094403 12 116 0.0 3.2 0.00 0.15 0.15 89 1010.8
20260505093901 12 116 1.6 4.8 0.13 0.15 0.15 89 1010.9
20260505093404 12 115 1.6 4.8 0.15 0.15 0.15 89 1010.9
20260505093322 12 111 0.0 3.2 0.15 0.15 0.15 89 1010.9
20260505092815 12 115 0.0 3.2 0.15 0.15 0.15 88 1011.0
20260505091859 13 115 1.6 3.2 0.15 0.15 0.15 88 1011.1
20260505091354 13 115 1.6 3.2 0.15 0.15 0.15 87 1011.0
20260505091302 13 123 0.0 3.2 0.15 0.15 0.15 85 1011.0
20260505090340 13 123 0.0 4.8 0.15 0.15 0.15 84 1011.0
20260505090023 13 123 0.0 4.8 0.15 0.15 0.15 83 1011.1
20260505084832 14 112 1.6 4.8 0.15 0.15 0.15 80 1011.1
20260505084739 15 107 1.6 4.8 0.15 0.15 0.13 77 1011.2
20260505083835 15 101 1.6 4.8 0.03 0.03 0.03 72 1011.0
20260505083332 15 277 1.6 4.8 0.00 0.00 0.00 68 1011.1
20260505082837 15 277 1.6 4.8 0.00 0.00 0.00 66 1011.1
20260505082333 15 269 1.6 4.8 0.00 0.00 0.00 66 1011.1
20260505081830 15 319 1.6 4.8 0.00 0.00 0.00 67 1010.9
20260505081332 15 286 1.6 4.8 0.00 0.00 0.00 67 1010.9
20260505080833 15 294 1.6 3.2 0.00 0.00 0.00 67 1010.7
20260505080332 15 209 0.0 3.2 0.00 0.00 0.00 67 1010.2
20260505075830 16 209 0.0 1.6 0.00 0.00 0.00 66 1010.4
20260505075332 16 209 0.0 3.2 0.00 0.00 0.00 65 1010.4
20260505074835 16 205 0.0 3.2 0.00 0.00 0.00 65 1010.3
20260505074333 16 205 1.6 8.0 0.00 0.00 0.00 64 1010.2
20260505073830 16 205 1.6 8.0 0.00 0.00 0.00 63 1010.4
20260505073329 16 222 1.6 6.4 0.00 0.00 0.00 63 1010.5
20260505072829 16 212 1.6 8.0 0.00 0.00 0.00 63 1010.6
20260505072319 16 192 1.6 8.0 0.00 0.00 0.00 62 1010.5
20260505071817 16 233 1.6 8.0 0.00 0.00 0.00 62 1010.5
20260505071312 16 246 3.2 8.0 0.00 0.00 0.00 62 1010.5
20260505070809 16 223 3.2 8.0 0.00 0.00 0.00 61 1010.5
20260505070310 16 236 3.2 9.7 0.00 0.00 0.00 61 1010.4
20260505070242 16 213 3.2 9.7 0.00 0.00 0.00 61 1010.6
20260505065309 16 233 3.2 8.0 0.00 0.00 0.00 61 1010.5
20260505064809 16 200 3.2 8.0 0.00 0.00 0.00 61 1010.5
20260505064507 16 194 3.2 8.0 0.00 0.00 0.00 61 1010.6
20260505063309 16 198 3.2 6.4 0.00 0.00 0.00 60 1010.6
20260505062811 16 186 3.2 6.4 0.00 0.00 0.00 60 1010.6
20260505062722 16 225 3.2 6.4 0.00 0.00 0.00 61 1010.7
20260505062000 16 242 3.2 6.4 0.00 0.00 0.00 61 1010.7
20260505060810 16 192 1.6 6.4 0.00 0.00 0.00 60 1010.6
20260505060330 16 175 1.6 6.4 0.00 0.00 0.00 60 1010.8
20260505060236 16 213 1.6 6.4 0.00 0.00 0.00 59 1010.6
20260505055325 16 150 1.6 6.4 0.00 0.00 0.00 59 1010.5
20260505054829 16 209 0.0 4.8 0.00 0.00 0.00 59 1010.7
20260505054322 16 150 0.0 4.8 0.00 0.00 0.00 58 1010.6
20260505053821 16 150 0.0 6.4 0.00 0.00 0.00 58 1010.7
20260505053315 16 142 0.0 6.4 0.00 0.00 0.00 57 1010.6
20260505052749 16 250 0.0 6.4 0.00 0.00 0.00 57 1010.7
20260505052244 17 250 1.6 6.4 0.00 0.00 0.00 56 1010.7
20260505051742 17 250 1.6 6.4 0.00 0.00 0.00 55 1010.5
20260505051300 17 173 3.2 17.7 0.00 0.00 0.00 55 1010.5
20260505050758 17 219 3.2 17.7 0.00 0.00 0.00 55 1010.5
20260505050259 17 212 4.8 17.7 0.00 0.00 0.00 55 1010.5
20260505041754 17 181 3.2 12.9 0.00 0.00 0.00 53 1010.5
20260505041248 17 211 3.2 12.9 0.00 0.00 0.00 52 1010.5
20260505041007 17 217 3.2 12.9 0.00 0.00 0.00 52 1010.6
20260505040752 17 217 3.2 12.9 0.00 0.00 0.00 52 1010.6
20260505040241 17 240 3.2 14.5 0.00 0.00 0.00 52 1010.4
20260505035742 18 236 3.2 14.5 0.00 0.00 0.00 51 1010.1
20260505035240 18 205 3.2 14.5 0.00 0.00 0.00 51 1010.2
20260505034736 18 199 3.2 14.5 0.00 0.00 0.00 51 1010.1
20260505034236 18 230 3.2 9.7 0.00 0.00 0.00 51 1010.0
20260505033736 18 220 3.2 8.0 0.00 0.00 0.00 50 1010.0
20260505033506 18 167 3.2 9.7 0.00 0.00 0.00 50 1010.1
20260505033250 18 167 3.2 9.7 0.00 0.00 0.00 50 1010.1
20260505033000 18 182 3.2 9.7 0.00 0.00 0.00 50 1010.2
20260505032251 18 197 3.2 12.9 0.00 0.00 0.00 50 1010.2
20260505031734 18 233 3.2 12.9 0.00 0.00 0.00 49 1010.2
20260505031721 18 155 4.8 14.5 0.00 0.00 0.00 49 1010.2
20260505030730 18 217 4.8 14.5 0.00 0.00 0.00 49 1010.3
20260505030634 18 164 3.2 11.3 0.00 0.00 0.00 49 1010.4
20260505025941 18 167 3.2 11.3 0.00 0.00 0.00 49 1010.4
20260505024732 18 223 3.2 12.9 0.00 0.00 0.00 48 1010.3
20260505024237 18 205 3.2 12.9 0.00 0.00 0.00 48 1010.4
20260505023731 18 213 3.2 9.7 0.00 0.00 0.00 48 1010.4
20260505023459 19 222 3.2 16.1 0.00 0.00 0.00 47 1010.4
20260505022735 19 190 6.4 16.1 0.00 0.00 0.00 47 1010.5
20260505022239 19 182 6.4 16.1 0.00 0.00 0.00 47 1010.5
20260505021730 19 215 8.0 17.7 0.00 0.00 0.00 47 1010.5
20260505021552 19 225 6.4 17.7 0.00 0.00 0.00 47 1010.5
20260505020956 19 190 6.4 16.1 0.00 0.00 0.00 47 1010.6
20260505020739 19 190 6.4 16.1 0.00 0.00 0.00 47 1010.6
20260505020234 19 150 4.8 14.5 0.00 0.00 0.00 48 1010.5
20260505015731 19 165 4.8 14.5 0.00 0.00 0.00 47 1010.6
20260505015229 19 192 4.8 14.5 0.00 0.00 0.00 48 1010.4
20260505014730 19 159 4.8 14.5 0.00 0.00 0.00 47 1010.5
20260505014235 19 170 4.8 14.5 0.00 0.00 0.00 48 1010.5
20260505013959 19 212 4.8 12.9 0.00 0.00 0.00 48 1010.4
20260505013736 19 212 4.8 12.9 0.00 0.00 0.00 48 1010.4
20260505013234 19 151 4.8 14.5 0.00 0.00 0.00 48 1010.5
20260505012741 19 200 4.8 14.5 0.00 0.00 0.00 47 1010.4
20260505012539 19 227 4.8 16.1 0.00 0.00 0.00 47 1010.3
20260505011952 19 217 4.8 16.1 0.00 0.00 0.00 47 1010.3
20260505011212 19 160 3.2 12.9 0.00 0.00 0.00 47 1010.2
20260505010706 19 181 4.8 12.9 0.00 0.00 0.00 47 1010.1
20260505010206 19 192 6.4 14.5 0.00 0.00 0.00 47 1010.2
20260505005705 19 164 6.4 14.5 0.00 0.00 0.00 47 1010.0
20260505005204 19 180 6.4 14.5 0.00 0.00 0.00 46 1010.1
20260505004703 19 198 6.4 14.5 0.00 0.00 0.00 46 1010.0
20260505004204 19 167 6.4 14.5 0.00 0.00 0.00 46 1010.0